Back to catalog

COSMOS 1275 DEB

AlivePO
NORAD 42153·DEBRIS·🇷🇺 Russia

Launched Jun 4, 1981 from Plesetsk Cosmodrome

Loading…

Next Passes (next 24 hours)

TLE

AgingSource: Space-Track

Epoch: Sep 6, 2026, 05:20 UTC

1 42153U 81053RR  26249.22262146  .00001694  00000-0  79225-3 0  9998
2 42153  82.8335  71.8661 0039188 332.8355  27.0774 14.19398608640795

Track COSMOS 1275 DEB in real time with AllMySat

Download on the App Store